Flag for Canada Weather past 2 weeks in St. John's, Newfoundland and Labrador, Canada

Now
54 °F

Drizzle. Mostly cloudy.


Feels Like: 48 °F
Forecast: 49 / 59 °F
Wind: 20 mph from South

Location: St. John's

Current Time: Aug 1, 2015 at 2:20:26 PM

Latest Report: Aug 1, 2015 at 1:30 PM


Visibility: 8 mi

Pressure: 29.81 "Hg

Humidity: 94%

Dew point: 52 °F

Location of St. John'sLocation

Historic Weather in St. John's — Graph

°F

St. John's temperature yesterday

Maximum temperature yesterday: 55 °F (at 2:30 PM)
Minimum temperature yesterday: 48 °F (at 1:30 AM)
Average temperature yesterday: 51 °F

Past Weeks' High & Low Weather Summary

 TemperatureHumidityPressure
High66 °F (Jul 28, 1:30 PM)100% (Jul 18, 1:30 AM)30.24 "Hg (Jul 18, 1:30 AM)
Low43 °F (Jul 25, 3:30 AM)63% (Jul 18, 4:30 PM)29.26 "Hg (Jul 23, 11:30 AM)
Average51 °F92%29.94 "Hg
* Reported Jul 17 12:30 PM — Aug 1 12:30 PM, St. John's, Weather by CustomWeather, © 2015

Note: Actual official high and low records may vary slightly from our data, if they occured in-between our weather recording intervals... More about our weather records

Advertising

St. John's weather history for previous 24 hours

 ConditionsComfort  
Time TempWeatherWind HumidityBarometerVisibility
12:30 PM
Sat, Aug 1
54 °FSprinkles. Low clouds.14 mph94%29.82 "Hg8 mi
11:30 AM52 °FSprinkles. Mostly cloudy.18 mph100%29.83 "Hg8 mi
10:30 AM52 °FSprinkles. More clouds than sun.15 mph100%29.84 "Hg12 mi
9:30 AM52 °FLight rain. Low clouds.13 mph100%29.85 "Hg12 mi
8:30 AM52 °FLow clouds.10 mph100%29.86 "Hg12 mi
7:30 AM50 °FDrizzle. Low clouds.12 mph100%29.85 "Hg10 mi
6:30 AM50 °FDrizzle. Fog.13 mph100%29.86 "Hg2 mi
5:30 AM50 °FLight rain. Fog.10 mph100%29.87 "Hg6 mi
4:30 AM48 °FLight rain. Fog.10 mph100%29.86 "Hg0 mi
3:30 AM50 °FLight rain. Fog.8 mph100%29.89 "Hg1 mi
2:30 AM50 °FDrizzle. Fog.5 mph100%29.91 "Hg1 mi
1:30 AM48 °FDrizzle. Fog.2 mph100%29.92 "Hg1 mi
12:30 AM50 °FDrizzle. Fog.2 mph100%29.93 "Hg3 mi
11:30 PM
Fri, Jul 31
52 °FDrizzle. Low clouds.No wind94%29.93 "Hg10 mi
10:30 PM52 °FDrizzle. Mostly cloudy.2 mph94%29.94 "Hg15 mi
9:30 PM50 °FDrizzle. Low clouds.2 mph100%29.93 "Hg15 mi
8:30 PM50 °FDrizzle. Fog.3 mph100%29.92 "Hg5 mi
8:17 PM50 °FDrizzle. Fog.5 mph100%29.92 "Hg5 mi
7:30 PM52 °FFog.3 mph94%29.91 "Hg6 mi
6:30 PM54 °FMore clouds than sun.10 mph94%29.89 "Hg15 mi
5:30 PM54 °FMore clouds than sun.10 mph94%29.91 "Hg10 mi
4:30 PM55 °FOvercast.14 mph88%29.90 "Hg15 mi
3:30 PM55 °FLow clouds.12 mph88%29.88 "Hg15 mi
2:30 PM55 °FBroken clouds.18 mph88%29.87 "Hg10 mi
Weather by CustomWeather, © 2015

See weather overviewHow to use our weather pages